Regional Weather Roundup
Issued by NWS

Home | Current Version | Previous Version | Text Only | Print | Product List | Glossary On
Versions: 1 2 3 4 5 6 7 8 9 10 11 12 13 14 15 16 17 18 19 20 21 22 23 24 25 26 27 28 29 30 31 32 33 34 35 36 37 38 39 40 41 42 43 44 45 46 47 48 49 50
000
ASUS43 KDTX 302310
RWRMI
MICHIGAN HOURLY REGIONAL WEATHER ROUNDUP
NATIONAL WEATHER SERVICE DETROIT/PONTIAC MI
700 PM EDT TUE AUG 30 2016

NOTE: "FAIR" INDICATES FEW OR NO CLOUDS BELOW 12,000 FEET WITH NO
SIGNIFICANT WEATHER AND/OR OBSTRUCTION TO VISIBILITY.

MIZ047>049-052>055-059>063-066>070-074>076-081>083-310000-
SOUTHEAST LOWER MICHIGAN

CITY           SKY/WX    TMP DP  RH WIND       PRES   REMARKS
ADRIAN         CLOUDY    78  73  84 W3        30.06F
ALMA           CLOUDY    75  71  89 SW10      30.05S
ANN ARBOR      CLOUDY    78  71  79 CALM      30.05F
BAD AXE        CLOUDY    77  69  76 SW7       30.03S
CARO           PTSUNNY   78  72  84 S3        30.02F
DETROIT CITY   CLOUDY    79  58  48 S6        30.04F
DETROIT        CLOUDY    79  65  62 S6        30.05F
FLINT          CLOUDY    78  71  79 SW3       30.04F
GROSSE ILE     PTSUNNY   76  67  74 S5        30.04F
HILLSDALE      LGT RAIN  71  68  92 SE3       30.09R
HOWELL         CLOUDY    78  69  75 SW5       30.05S

CITY           SKY/WX    TMP DP  RH WIND       PRES   REMARKS
JACKSON        PTSUNNY   79  72  79 W3        30.06S
LAMBERTVILLE   CLOUDY    80  70  71 CALM      30.05F
LANSING        LGT RAIN  72  66  81 W6        30.05F
LAPEER         FAIR      76  70  81 S5        30.05S
MASON          CLOUDY    78  70  74 W8        30.06S
MONROE         CLOUDY    78  72  81 CALM      30.04F
MT. CLEMENS    CLOUDY    76  65  67 S7        30.02F
PONTIAC        CLOUDY    78  67  68 SW8       30.04F
PORT HOPE        N/A     81  70  69 CALM      30.01S
PORT HURON     PTSUNNY   73  66  78 CALM      30.04F
TRI CITIES     CLOUDY    79  69  71 SW12      30.03F
MIDLAND        FAIR      78  68  71 SW5       30.02S
TROY           CLOUDY    82  61  49 S3        30.06F
SAGINAW HB     CLOUDY    79  70  73 SW8       30.02F
$$
MIZ043>046-050>051-056>058-064>065-071>073-077>080-310000-
SOUTHWEST LOWER MICHIGAN

CITY           SKY/WX    TMP DP  RH WIND       PRES   REMARKS
BATTLE CREEK   CLOUDY    78  71  79 W5        30.07S
BENTON HARBOR  MOSUNNY   78  71  79 W3        30.04F
BIG RAPIDS     MOSUNNY   81  71  71 W8        30.04S
COLDWATER      LGT RAIN  74  71  89 SE9       30.07R
FREMONT        FAIR      77  70  80 W7        30.04F
HOLLAND        CLOUDY    75  69  81 W6        30.06S
GRAND RAPIDS   CLOUDY    77  70  79 CALM      30.05F
IONIA          FAIR      74  68  79 S6        30.04F
KALAMAZOO      CLOUDY    79  69  71 SW3       30.06S
LUDINGTON      CLOUDY    74  72  92 SW9       30.03F
MARSHALL       CLOUDY    80  72  75 CALM      30.06S
MOUNT PLEASANT MOSUNNY   79  70  73 SW6       30.02S
MUSKEGON       CLOUDY    76  72  87 SW6       30.04F
SOUTH HAVEN    MOSUNNY   78  73  85 W3        30.05F
$$
MIZ016>042-310000-
NORTHERN LOWER MICHIGAN

CITY           SKY/WX    TMP DP  RH WIND       PRES   REMARKS
ALPENA         PTSUNNY   73  68  84 E3        30.02R
BEAVER ISLAND  CLOUDY    71  70  96 CALM      30.04R
BELLAIRE       SUNNY     78  66  67 NW3       30.02S
CADILLAC       MOSUNNY   79  69  71 W7        30.05S
CHARLEVOIX     PTSUNNY   77  66  69 W7        30.05S
FRANKFORT      MOSUNNY   75  70  85 SW6       30.03S
GAYLORD        MOSUNNY   78  65  63 VRB7      30.04R
GRAYLING       MOSUNNY   81  69  67 W7        30.03S
HARBOR SPRINGS MOSUNNY   75  66  73 W6        30.02S
HOUGHTON LAKE  PTSUNNY   75  68  78 SW6       30.04S
MANISTEE       MOSUNNY   78  70  76 W7        30.02F
OSCODA         RAIN      69  65  89 W6        30.02F
PELLSTON       MOSUNNY   77  66  68 NW10      30.02S
ROGERS CITY    CLOUDY    78  66  66 NW7       30.01S
TRAVERSE CITY  PTSUNNY   82  68  62 W12       30.00S
$$
MIZ007>008-015-310000-
EASTERN UPPER MICHIGAN

CITY           SKY/WX    TMP DP  RH WIND       PRES   REMARKS
KINROSS        PTSUNNY   68  61  77 N15G24    30.03S
MACKINAC ISLAN CLOUDY    72  64  76 N3        30.02R
NEWBERRY       CLOUDY    69  58  67 NW10      30.06R
S. S. MARIE    CLOUDY    68  61  78 NW13      30.03R
MUNISING         N/A     67  58  72 N14       30.08R
$$
MIZ004>006-011>014-085-310000-
CENTRAL UPPER MICHIGAN

CITY           SKY/WX    TMP DP  RH WIND       PRES   REMARKS
MANISTIQUE     CLOUDY    72  60  67 N10       30.04R
ESCANABA       CLOUDY    75  66  73 NE10      30.03R
MENOMINEE      PTSUNNY  N/A N/A N/A N9        30.03
SAWYER-GWINN   SUNNY     64  57  77 NE13G18   30.09R
$$
MIZ001>003-009>011-084-310000-
WESTERN UPPER MICHIGAN

CITY           SKY/WX    TMP DP  RH WIND       PRES   REMARKS
IRON MOUNTAIN  MOSUNNY   77  58  51 NW7       30.06S
HOUGHTON       SUNNY     68  50  52 NW14      30.10S
COPPER HARBOR    N/A     69  54  58 N13G21    30.08S
IRONWOOD       SUNNY     69  52  54 W3        30.14F
$$

ABBREVIATIONS USED IN REMARKS
   TC - TEMPERATURE IN CELSIUS
  WCI - WIND CHILL INDEX
   HX - HEAT INDEX
  VSB - VISIBILITY




USA.gov is the U.S. government's official web portal to all federal, state and local government web resources and services.